Location: Nairn
(57.5833°N, 3.8667°W)
Time: 18:16:04
(UTC+00:00)

Tiros 1 - Pass Details

Date: 26 November 2020
Orbit: 630 x 663 km, 48.4° (Epoch: 21 January)

Event Time Altitude Azimuth Distance (km) Brightness Sun altitude
Rises 22:20:37 0° 265° (W) 2,975 - -49.1°
Reaches altitude 10° 22:25:26 10° 222° (SW) 2,048 - -49.5°
Maximum altitude 22:25:55 10° 217° (SW) 2,037 - -49.5°
Drops below altitude 10° 22:26:23 10° 211° (SSW) 2,045 - -49.5°
Sets 22:31:09 0° 167° (SSE) 2,937 - -49.9°
